Location: Frydek-Mistek
(49.6830°N, 18.3330°E)
Time: 17:45:05
(UTC+01:00)

Courier 1B Rocket - Visible Passes

Search period start: 23 January 2017 00:00
Search period end: 02 February 2017 00:00
Orbit: 920 x 1202 km, 28.2° (Epoch: 21 January)

Date Brightness Start Highest point End Pass type
(mag) Time Alt. Az. Time Alt. Az. Time Alt. Az.
23 Jan 7.4 04:08:43 12° S 04:09:44 12° S 04:12:24 10° SSE visible
23 Jan 7.4 05:58:39 10° SSW 06:01:50 13° S 06:05:04 10° SSE visible
24 Jan 7.3 04:57:54 10° SSW 05:01:08 13° S 05:04:27 10° SSE visible
25 Jan 7.3 04:00:42 13° S 04:00:42 13° S 04:03:26 10° SSE visible
25 Jan 7.4 05:50:23 10° SSW 05:52:33 11° S 05:54:44 10° S visible
26 Jan 7.3 04:49:51 11° SSW 04:51:52 12° S 04:54:39 10° SSE visible
27 Jan 7.4 03:52:38 12° SSE 03:52:38 12° SSE 03:54:00 10° SSE visible
28 Jan 7.3 04:41:48 10° SSW 04:42:37 10° S 04:43:52 10° S visible
